• In Hungary
  • List of Countries
  • For 7 days
  • Water Temperature
  • Satellite Maps
  • Weather Map
  • News
  • Weather Widgets
  • user-avatar
    Login

    Hourly Weather Kópavogur

    Today, 16 July, Monday

    Time Temperature Precipitation Wind Pressure Humidity
    00:00 +10°C° 0.1 mm 2 mps 747 mmHg 93%
    01:00 +10°C° 0.1 mm 3 mps 747 mmHg 93%
    02:00 +9°C° 0.1 mm 3 mps 748 mmHg 92%
    03:00 +8°C° 0.1 mm 4 mps 748 mmHg 92%
    04:00 +10°C° 0.1 mm 4 mps 748 mmHg 91%
    05:00 +10°C° 0 mm 4 mps 748 mmHg 90%
    06:00 +10°C° 0 mm 4 mps 748 mmHg 86%
    07:00 +10°C° 0 mm 5 mps 748 mmHg 83%
    08:00 +10°C° 0 mm 5 mps 749 mmHg 80%
    09:00 +12°C° 0 mm 5 mps 749 mmHg 76%
    10:00 +13°C° 0 mm 6 mps 749 mmHg 72%
    11:00 +14°C° 0 mm 6 mps 749 mmHg 69%
    12:00 +14°C° 0 mm 6 mps 749 mmHg 67%
    13:00 +14°C° 0 mm 6 mps 749 mmHg 65%
    14:00 +15°C° 0 mm 7 mps 750 mmHg 63%
    15:00 +14°C° 0 mm 7 mps 750 mmHg 64%
    16:00 +14°C° 0 mm 7 mps 750 mmHg 65%
    17:00 +14°C° 0 mm 7 mps 750 mmHg 66%
    18:00 +12°C° 0 mm 7 mps 750 mmHg 67%
    19:00 +11°C° 0 mm 6 mps 751 mmHg 69%
    20:00 +10°C° 0 mm 6 mps 751 mmHg 71%
    21:00 +9°C° 0 mm 6 mps 751 mmHg 73%
    22:00 +8°C° 0 mm 5 mps 751 mmHg 76%
    23:00 +7°C° 0 mm 5 mps 751 mmHg 79%

    Tomorrow, 17 July, Tuesday

    Time Temperature Precipitation Wind Pressure Humidity
    00:00 +6°C° 0 mm 5 mps 752 mmHg 79%
    01:00 +6°C° 0 mm 5 mps 752 mmHg 78%
    02:00 +6°C° 0 mm 5 mps 752 mmHg 77%
    03:00 +6°C° 0 mm 4 mps 752 mmHg 75%
    04:00 +6°C° 0 mm 4 mps 752 mmHg 73%
    05:00 +7°C° 0 mm 4 mps 752 mmHg 70%
    06:00 +8°C° 0 mm 4 mps 752 mmHg 65%
    07:00 +11°C° 0 mm 4 mps 752 mmHg 59%
    08:00 +12°C° 0 mm 4 mps 752 mmHg 53%
    09:00 +13°C° 0 mm 4 mps 753 mmHg 49%
    10:00 +14°C° 0 mm 4 mps 753 mmHg 46%
    11:00 +15°C° 0 mm 4 mps 753 mmHg 42%
    12:00 +17°C° 0 mm 4 mps 753 mmHg 41%
    13:00 +17°C° 0 mm 4 mps 753 mmHg 40%
    14:00 +16°C° 0 mm 5 mps 753 mmHg 38%
    15:00 +16°C° 0 mm 5 mps 753 mmHg 40%
    16:00 +16°C° 0 mm 5 mps 753 mmHg 41%
    17:00 +15°C° 0 mm 5 mps 753 mmHg 42%
    18:00 +14°C° 0 mm 4 mps 753 mmHg 46%
    19:00 +13°C° 0 mm 4 mps 753 mmHg 50%
    20:00 +12°C° 0 mm 4 mps 753 mmHg 54%
    21:00 +11°C° 0 mm 3 mps 753 mmHg 58%
    22:00 +10°C° 0 mm 2 mps 753 mmHg 63%
    23:00 +8°C° 0 mm 2 mps 753 mmHg 67%

    Day after tomorrow, 18 July, Wednesday

    Time Temperature Precipitation Wind Pressure Humidity
    00:00 +8°C° 0 mm 2 mps 753 mmHg 68%
    01:00 +9°C° 0 mm 1 mps 753 mmHg 69%
    02:00 +8°C° 0 mm 1 mps 753 mmHg 69%
    03:00 +9°C° 0 mm 1 mps 753 mmHg 68%
    04:00 +9°C° 0 mm 2 mps 753 mmHg 67%
    05:00 +9°C° 0 mm 2 mps 753 mmHg 66%
    06:00 +10°C° 0 mm 2 mps 753 mmHg 62%
    07:00 +12°C° 0 mm 2 mps 752 mmHg 58%
    08:00 +12°C° 0 mm 3 mps 752 mmHg 55%
    09:00 +12°C° 0 mm 3 mps 752 mmHg 54%
    10:00 +13°C° 0 mm 4 mps 752 mmHg 53%
    11:00 +13°C° 0 mm 4 mps 752 mmHg 52%
    12:00 +13°C° 0.1 mm 4 mps 752 mmHg 54%
    13:00 +13°C° 0.1 mm 5 mps 752 mmHg 56%
    14:00 +13°C° 0.1 mm 5 mps 751 mmHg 57%
    15:00 +12°C° 0.5 mm 5 mps 751 mmHg 62%
    16:00 +12°C° 0.5 mm 5 mps 751 mmHg 68%
    17:00 +10°C° 0.5 mm 5 mps 751 mmHg 73%
    18:00 +10°C° 0.3 mm 5 mps 751 mmHg 76%
    19:00 +9°C° 0.3 mm 5 mps 751 mmHg 78%
    20:00 +9°C° 0.3 mm 5 mps 750 mmHg 81%
    21:00 +8°C° 0.1 mm 5 mps 750 mmHg 81%
    22:00 +8°C° 0.1 mm 5 mps 750 mmHg 81%
    23:00 +8°C° 0.1 mm 4 mps 750 mmHg 80%

    19 July, Thursday

    Time Temperature Precipitation Wind Pressure Humidity
    00:00 +8°C° 0.1 mm 4 mps 750 mmHg 79%
    01:00 +8°C° 0.1 mm 4 mps 750 mmHg 79%
    02:00 +9°C° 0.1 mm 3 mps 750 mmHg 78%
    03:00 +10°C° 0.1 mm 3 mps 749 mmHg 77%
    04:00 +10°C° 0.1 mm 3 mps 749 mmHg 76%
    05:00 +10°C° 0.1 mm 3 mps 749 mmHg 76%
    06:00 +10°C° 0.1 mm 2 mps 749 mmHg 74%
    07:00 +10°C° 0.1 mm 2 mps 749 mmHg 72%
    08:00 +12°C° 0.1 mm 2 mps 749 mmHg 70%
    09:00 +13°C° 0.1 mm 2 mps 749 mmHg 67%
    10:00 +13°C° 0.1 mm 2 mps 750 mmHg 65%
    11:00 +14°C° 0.1 mm 2 mps 750 mmHg 62%
    12:00 +15°C° 0 mm 2 mps 750 mmHg 60%
    13:00 +16°C° 0 mm 3 mps 750 mmHg 58%
    14:00 +17°C° 0 mm 4 mps 750 mmHg 56%
    15:00 +17°C° 0 mm 4 mps 751 mmHg 56%
    16:00 +17°C° 0 mm 4 mps 751 mmHg 57%
    17:00 +16°C° 0 mm 5 mps 751 mmHg 58%
    18:00 +15°C° 0 mm 5 mps 751 mmHg 61%
    19:00 +15°C° 0 mm 5 mps 752 mmHg 64%
    20:00 +14°C° 0 mm 5 mps 752 mmHg 67%
    21:00 +13°C° 0 mm 4 mps 752 mmHg 71%
    22:00 +12°C° 0 mm 4 mps 752 mmHg 75%
    23:00 +11°C° 0 mm 4 mps 753 mmHg 79%

    20 July, Friday

    Time Temperature Precipitation Wind Pressure Humidity
    00:00 +10°C° 0 mm 4 mps 753 mmHg 81%
    01:00 +10°C° 0 mm 3 mps 753 mmHg 82%
    02:00 +9°C° 0 mm 3 mps 753 mmHg 84%
    03:00 +10°C° 0 mm 3 mps 753 mmHg 83%
    04:00 +10°C° 0 mm 3 mps 752 mmHg 82%
    05:00 +10°C° 0 mm 3 mps 752 mmHg 81%
    06:00 +11°C° 0 mm 3 mps 752 mmHg 78%
    07:00 +11°C° 0 mm 3 mps 753 mmHg 76%
    08:00 +12°C° 0 mm 3 mps 753 mmHg 73%
    09:00 +12°C° 0 mm 3 mps 753 mmHg 71%
    10:00 +13°C° 0 mm 3 mps 753 mmHg 68%
    11:00 +14°C° 0 mm 3 mps 753 mmHg 66%
    12:00 +14°C° 0 mm 3 mps 753 mmHg 67%
    13:00 +14°C° 0 mm 3 mps 753 mmHg 67%
    14:00 +14°C° 0 mm 3 mps 753 mmHg 68%
    15:00 +13°C° 0 mm 3 mps 753 mmHg 70%
    16:00 +13°C° 0 mm 3 mps 753 mmHg 72%
    17:00 +13°C° 0 mm 2 mps 753 mmHg 74%
    18:00 +13°C° 0 mm 2 mps 752 mmHg 75%
    19:00 +13°C° 0 mm 2 mps 752 mmHg 76%
    20:00 +13°C° 0 mm 2 mps 752 mmHg 78%
    21:00 +12°C° 0 mm 2 mps 752 mmHg 81%
    22:00 +12°C° 0 mm 2 mps 752 mmHg 84%
    23:00 +10°C° 0 mm 2 mps 752 mmHg 87%

    21 July, Saturday

    Time Temperature Precipitation Wind Pressure Humidity
    00:00 +10°C° 0 mm 2 mps 752 mmHg 88%
    01:00 +10°C° 0 mm 2 mps 752 mmHg 90%
    02:00 +10°C° 0 mm 2 mps 751 mmHg 91%
    03:00 +10°C° 0.1 mm 2 mps 751 mmHg 91%
    04:00 +10°C° 0.1 mm 3 mps 751 mmHg 91%
    05:00 +10°C° 0.1 mm 3 mps 750 mmHg 92%
    06:00 +10°C° 0.1 mm 3 mps 750 mmHg 91%
    07:00 +10°C° 0.1 mm 4 mps 750 mmHg 90%
    08:00 +10°C° 0.1 mm 4 mps 750 mmHg 89%
    09:00 +11°C° 0.1 mm 4 mps 750 mmHg 89%
    10:00 +11°C° 0.1 mm 4 mps 750 mmHg 88%
    11:00 +11°C° 0.1 mm 4 mps 750 mmHg 88%
    12:00 +12°C° 0 mm 4 mps 750 mmHg 89%
    13:00 +12°C° 0 mm 4 mps 750 mmHg 89%
    14:00 +12°C° 0 mm 3 mps 750 mmHg 90%
    15:00 +12°C° 0 mm 3 mps 749 mmHg 90%
    16:00 +12°C° 0 mm 3 mps 749 mmHg 91%
    17:00 +12°C° 0 mm 3 mps 749 mmHg 91%
    18:00 +11°C° 0 mm 3 mps 749 mmHg 92%
    19:00 +11°C° 0 mm 3 mps 749 mmHg 92%
    20:00 +11°C° 0 mm 3 mps 749 mmHg 93%
    21:00 +10°C° 0 mm 2 mps 749 mmHg 94%
    22:00 +10°C° 0 mm 2 mps 749 mmHg 95%
    23:00 +11°C° 0 mm 1 mps 749 mmHg 96%
    Show more